Page, AZ

4:21 AM MST on December 17, 2017 (GMT -0700)
Page Municipal

Weather History for KPGA - October, 2010

Change the Weather History Date:

Thursday, October 7, 2010

  Actual Average Record
Temperature  
Mean Temperature 63 °F -  
Max Temperature 75 °F 74 °F 86 °F (1987)
Min Temperature 51 °F 51 °F 37 °F (1969)
Degree Days  
Heating Degree Days 2    
Growing Degree Days 13 (Base 50)    
Moisture  
Dew Point 41 °F    
Average Humidity 56    
Maximum Humidity 92    
Minimum Humidity 19    
Precipitation  
Precipitation 0.00 in - - ()
Sea Level Pressure  
Sea Level Pressure 30.01 in    
Wind  
Wind Speed 4 mph (WSW)    
Max Wind Speed 16 mph    
Max Gust Speed 26 mph    
Visibility 10 miles    
Events      
Averages and records for this station are not official NWS values.
T = Trace of Precipitation, MM = Missing Value Source: NWS Daily Summary

Daily Weather History Graph

Daily Weather History Graph

Search for Another Location

Airport or City:

Trip Planner

Search our weather history database for the weather conditions in past years. The results will help you decide how hot, cold, wet, or windy it might be!

Date:

Astronomy

Oct. 07, 2010 Rise Set
Actual Time 6:26 AM MST 6:00 PM MST
Civil Twilight 6:00 AM MST 6:26 PM MST
Nautical Twilight 5:30 AM MST 6:56 PM MST
Astronomical Twilight 5:00 AM MST 7:26 PM MST
Moon 6:20 AM MST (10/7) 5:41 PM MST (10/7)
Length of Visible Light 12h 25m
Length of Day
11h 33m
New Moon, 0% of the Moon is Illuminated
Oct 7
New Moon
Oct 14
First Quarter
Oct 22
Full
Oct 30
Last Quarter
Nov 5
New

Hourly Weather History & Observations

Time (MST) Temp. Dew Point Humidity Pressure Visibility Wind Dir Wind Speed Gust Speed Precip Events Conditions
12:53 AM 52.0 °F 48.9 °F 89% 30.08 in 10.0 mi Calm Calm - N/A   Clear
1:53 AM 51.1 °F 48.9 °F 92% 30.07 in 9.0 mi Calm Calm - N/A   Clear
2:53 AM 51.1 °F 48.9 °F 92% 30.05 in 10.0 mi Calm Calm - N/A   Clear
3:53 AM 51.1 °F 48.9 °F 92% 30.05 in 10.0 mi Calm Calm - N/A   Clear
4:53 AM 51.1 °F 48.9 °F 92% 30.05 in 10.0 mi Calm Calm - N/A   Clear
5:53 AM 51.1 °F 48.9 °F 92% 30.06 in 10.0 mi Calm Calm - N/A   Clear
6:53 AM 51.1 °F 48.9 °F 92% 30.07 in 10.0 mi Calm Calm - N/A   Clear
7:53 AM 55.9 °F 52.0 °F 87% 30.08 in 10.0 mi Calm Calm - N/A   Clear
8:53 AM 59.0 °F 52.0 °F 78% 30.07 in 10.0 mi Calm Calm - N/A   Clear
9:53 AM 62.1 °F 53.1 °F 72% 30.05 in 10.0 mi NE 4.6 mph - N/A   Clear
10:53 AM 64.9 °F 54.0 °F 68% 30.02 in 10.0 mi NNE 9.2 mph - N/A   Partly Cloudy
11:53 AM 72.0 °F 43.0 °F 35% 29.99 in 10.0 mi SSE 16.1 mph 25.3 mph N/A   Partly Cloudy
12:53 PM 72.0 °F 42.1 °F 34% 29.96 in 10.0 mi South 11.5 mph 26.5 mph N/A   Scattered Clouds
1:53 PM 75.0 °F 37.9 °F 26% 29.90 in 10.0 mi SSW 16.1 mph 24.2 mph N/A   Clear
2:53 PM 75.0 °F 32.0 °F 21% 29.89 in 10.0 mi SSW 13.8 mph 25.3 mph N/A   Partly Cloudy
3:53 PM 73.9 °F 34.0 °F 23% 29.89 in 10.0 mi SW 11.5 mph 19.6 mph N/A   Clear
4:53 PM 71.1 °F 33.1 °F 25% 29.91 in 10.0 mi WSW 8.1 mph - N/A   Clear
5:53 PM 69.1 °F 25.0 °F 19% 29.91 in 10.0 mi SW 8.1 mph 17.3 mph N/A   Clear
6:53 PM 66.9 °F 25.0 °F 21% 29.94 in 10.0 mi SW 6.9 mph - N/A   Clear
7:53 PM 66.0 °F 25.0 °F 21% 29.96 in 10.0 mi WSW 6.9 mph - N/A   Clear
8:53 PM 61.0 °F 34.0 °F 36% 30.00 in 10.0 mi West 9.2 mph 23.0 mph N/A   Clear
9:53 PM 59.0 °F 36.0 °F 42% 30.03 in 10.0 mi NW 6.9 mph - N/A   Clear
10:53 PM 57.0 °F 35.1 °F 44% 30.05 in 10.0 mi Variable 5.8 mph - N/A   Clear
11:53 PM 57.0 °F 34.0 °F 42% 30.04 in 10.0 mi WNW 4.6 mph - N/A   Clear